sat.trackr.live / text

‹ back to catalog

EXPRESS-AM44

NORAD 33595 · 2009-007A

PAYLOAD ACTIVE UNKNOWN

§ Identity

Operator
Country
CIS
Launch date
2009-02-11
Launch site
TYMSC
Launch vehicle
Mass (kg)
RCS (m²)
54.10

Purposes: comms

External: N2YO · Heavens-Above · Gunter

§ Orbital elements

Epoch: 2026-05-25T03:41:25.067904Z

Period
1,436.11 min
Inclination
3.4071°
Eccentricity
0.0004112
Mean motion
1.00271115 rev/d
Perigee alt
35,769.4 km
Apogee alt
35,804.1 km
Semi-major
42,164.9 km
B*
0.0000e+0
RAAN
78.6681°
Arg perigee
337.4529°
Mean anomaly
230.9720°
Rev number
5,205

§ Raw data

EXPRESS-AM441 33595U 09007A   26145.15376236 -.00000091  00000+0  00000+0 0  99912 33595   3.4071  78.6681 0004112 337.4529 230.9720  1.00271115 52052

JSON: /api/v1/satellites/33595 · /tle

For live sub-satellite position, see the globe view (requires WebGL).

§ Visibility from observer

Set your observer location to see the next 7 days of passes ≥ 10°. The values pass through the URL so the page stays shareable.

No JS? Fill the form by hand. The geolocation button needs JavaScript.